PEGASUS DEB, 27679

Orbit data source: Space-Track

PEGASUS DEB, 27679 is space debris in LEO originally from a launch on Thu, 19 May 1994 UTC launched from the Air Force Western Test Range (AFWTR). Debris objects in space refer to the collection of defunct objects orbiting the Earth. Examples of debris include non-operational satellites, rocket bodies, and fragments generated from explosions, collisions, or faulty payload assembly.

Loading next visibility...
Identifier
27679, 1994-029AEJ
Orbit
LEO
Country
Flag of USUS
Related business
Manufacturer
Unknown
Mission
Spacecraft
Bus & Motor
Unknown
Mass
Unknown
Launch date (UTC)
1994-05-19 (32 years ago)
Launch vehicle
Unknown
Launch site
Air Force Western Test Range (AFWTR)
Object type
Payload
Rocket body
Debris
Shape & HBR
Unknown shape, 0.1 m
Radar Cross Section
Small (<0.1 m²)

Expand to show TLE details & history
Last TLE update: 4 days ago

TLE from 4 days ago
0 PEGASUS DEB
1 27679U 94029AEJ 26058.54570075  .00002726  00000-0  60269-3 0  9992
2 27679  81.9769 123.2159 0295890 205.1197 153.5352 14.33243302250842
Epoch: 2026-02-27T13:05Z
TLE epoch observation values (Epoch: 2026-02-27T13:05:48.544Z)
Latitude
-0.00005°
Longitude
129.383°
Altitude
974.731 km
Speed
7.266 km/s
True Right ascension
08h 12m 51s
True Declination
0° 00' 00"
Sunlit
Object was in full shadow at epoch
Visualization orbit readout
Latitude
Unknown
Longitude
Unknown
Altitude
Unknown
Speed
Unknown
Apparent Right ascension
Unknown
Apparent Declination
Unknown
Sunlit
N/A
Visualization observer readout
Local Sidereal Time
01:59:19
Azimuth
Unknown
Elevation
Unknown
Doppler factor
Unknown
Orbital elements
Apogee altitude
989.759 km
Perigee altitude
566.272 km
Semi-major axis
7,156.153 km
Eccentricity
0.02959
Inclination
81.9769°
RAAN
123.2159°
Arg. of periapsis
205.1197°
True anomaly
154.99759°
Mean anomaly
153.5352°
Eccentric anomaly
154.27116°
Mean motion
3.58529 °/min
Orbital period
100.41 mins
BSTAR
0.00060269
Loading maneuver chart data...
Computing Atmospheric mass density...
Loading historical data...
Loading historical data...
Loading historical data...
Loading historical data...
Loading historical data...
Loading historical data...
Loading historical data...

Documentation

Showing up to 5 results
|